Regional Weather Roundup
Issued by NWS New Orleans/Baton Rouge, LA

Home | Current Version | Previous Version | Text Only | Print | Product List | Glossary On
Versions: 1 2 3 4 5 6 7 8 9 10 11 12 13 14 15 16 17 18 19 20 21 22 23 24 25 26 27 28 29 30 31 32 33 34 35 36 37 38 39 40 41 42 43 44 45 46 47 48 49 50
000
ASUS44 KLIX 140905
RWRLIX
NEW ORLEANS REGIONAL WEATHER ROUNDUP
NATIONAL WEATHER SERVICE NEW ORLEANS LA
400 AM CDT MON JUL 14 2014

NOTE: "FAIR" INDICATES FEW OR NO CLOUDS BELOW 12,000 FEET WITH NO
      SIGNIFICANT WEATHER AND/OR OBSTRUCTIONS TO VISIBILITY.
      SKY/WX - SKY CONDITION AND SIGNIFICANT WEATHER.
      TMP - AIR TEMPERATURE.     DP    - DEWPOINT TEMPERATURE.
      RH  - RELATIVE HUMIDITY.   PRES  - PRESSURE.
      HI  - HEAT INDEX.          WCI   - WIND CHILL INDEX.

*  THESE STATIONS ARE NOT NWS OR FAA STATIONS AND ARE NOT UNDER
   NWS QUALITY CONTROL.

LAZ038-040-048-061>063-065>067-069-141000-
SOUTHEAST LOUISIANA

CITY           SKY/WX    TMP DP  RH WIND       PRES   REMARKS
N.O. AUDUBON     N/A     78  75  92 MISG        N/A
N.O. INTL ARPT PTCLDY    77  74  90 SW6       30.03R
N.O. LAKEFRONT CLEAR     78  74  87 S7        30.03R
N.O. DOWNTOWN*   N/A     81  70  69 S5        30.04R
SLIDELL        CLEAR     73  70  90 CALM      30.01S
BATON ROUGE    CLEAR     75  72  90 SE3       30.02R
BOOTHVILLE     LGT RAIN  77  75  93 CALM      30.04R FOG
BELLE CHASSE     N/A     76  71  85 CALM      30.02S
BOGALUSA*        N/A     73  69  89 CALM      30.03S
GALLIANO*      NOT AVBL
NEW ROADS*       N/A     73  72  98 CALM      30.02R FOG
GONZALES*        N/A     74  74 100 CALM      30.02S
HAMMOND*       CLEAR     73  70  88 CALM      30.04R
HOUMA*         MOCLDY    75  72  89 CALM      30.03R FOG
PORT FOURCHON* PTSUNNY   82  75  78 S3        30.04S

$$

MSZ070-080>082-141000-
SOUTHERN MISSISSIPPI

CITY           SKY/WX    TMP DP  RH WIND       PRES   REMARKS
MCCOMB         CLEAR     72  69  90 CALM      30.03R
GULFPORT       CLEAR     78  73  84 CALM      30.02R HAZE
BILOXI         PTCLDY    80  73  81 SW8       30.02R
PASCAGOULA     PTCLDY    72  71  97 CALM      30.03R

$$

COASTAL OBSERVATIONS
LAKE AND NEARSHORE STATIONS

STATION/POSITION TIME  TEMP    WIND        PRES    WAVE
                       AIR SEA DIR/SP/G            HT/PER
                 (UTC) (F)     (DEG/KT/KT) (MB)    (FT/S)
PASCAGOULA       0900   83     220/  8/  9 1016.1
WAVELAND YACHT   0900   80     240/  3/  3 1015.9
GRAND ISLE       0900   81 88  220/  4/  7 1017.4
SOUTHWEST PASS   0900   83 84  200/  6/  7 1017.2
NEW CANAL        0900   79 85  200/  5/  8 1017.1
SHELL BEACH      0900   78 83  180/  5/  6 1016.7

OFFSHORE STATIONS

STATION/POSITION TIME  TEMP    WIND        PRES    WAVE
                       AIR SEA DIR/SP/G            HT/PER
                 (UTC) (F)     (DEG/KT/KT) (MB)    (FT/S)
64 S DAUPHIN ISL 0748   84 87  200/  8/ 12 1017.2

$$



USA.gov is the U.S. government's official web portal to all federal, state and local government web resources and services.